Weather History for Columbia, MO

Change the Weather History Date:

Wednesday, May 9, 2012

  Actual Average Record
Temperature  
Mean Temperature 59 °F 62 °F  
Max Temperature 69 °F 73 °F 91 °F (1895)
Min Temperature 48 °F 51 °F 31 °F (1906)
Degree Days  
Heating Degree Days 6 5  
Month to date heating degree days 7 48  
Since 1 July heating degree days 3761 4951  
Cooling Degree Days 0 2  
Month to date cooling degree days 63 11  
Year to date cooling degree days 150 36  
Growing Degree Days 8 (Base 50)    
Moisture  
Dew Point 45 °F    
Average Humidity 60    
Maximum Humidity 80    
Minimum Humidity 40    
Precipitation  
Precipitation 0.00 in 0.17 in 1.87 in (1894)
Month to date precipitation 1.16 1.53  
Year to date precipitation 16.94 13.10  
Snow  
Snow 0.00 in 0.00 in 0.00 in (2013)
Month to date snowfall 0.0 0.0  
Since 1 July snowfall 6.6 18.0  
Snow Depth 0.00 in    
Sea Level Pressure  
Sea Level Pressure 30.00 in    
Wind  
Wind Speed 8 mph (NW)    
Max Wind Speed 17 mph    
Max Gust Speed 21 mph    
Visibility 10 miles    
Events      
T = Trace of Precipitation, MM = Missing Value Source: NWS Daily Summary

Daily Weather History Graph

Daily Weather History Graph

Search for Another Location

Airport:

Trip Planner

Search our weather history database for the weather conditions in past years. The results will help you decide how hot, cold, wet, or windy it might be!

Date:

Astronomy

May. 09, 2012 Rise Set
Actual Time 6:01 AM CDT 8:09 PM CDT
Civil Twilight 5:32 AM CDT 8:38 PM CDT
Nautical Twilight 4:56 AM CDT 9:15 PM CDT
Astronomical Twilight 4:17 AM CDT 9:54 PM CDT
Moon No Moon Rise 9:18 AM CDT (5/9)
Length of Visible Light 15h 06m
Length of Day
14h 07m
Waning Gibbous, 82% of the Moon is Illuminated
May 9
Waning Gibbous
May 12
Last Quarter
May 20
New
May 28
First Quarter
Jun 4
Full

Hourly Weather History & Observations

Time (CDT) Temp. Dew Point Humidity Pressure Visibility Wind Dir Wind Speed Gust Speed Precip Events Conditions
12:54 AM 57.0 °F 45.0 °F 64% 30.01 in 10.0 mi NW 4.6 mph - N/A   Mostly Cloudy
1:54 AM 55.9 °F 45.0 °F 67% 30.01 in 10.0 mi NW 9.2 mph - N/A   Clear
2:54 AM 54.0 °F 44.1 °F 69% 30.00 in 10.0 mi NW 3.5 mph - N/A   Clear
3:54 AM 52.0 °F 45.0 °F 77% 30.00 in 10.0 mi NW 6.9 mph - N/A   Clear
4:54 AM 50.0 °F 44.1 °F 80% 30.01 in 10.0 mi WNW 5.8 mph - N/A   Clear
5:54 AM 48.9 °F 43.0 °F 80% 30.01 in 10.0 mi NW 6.9 mph - N/A   Clear
6:54 AM 50.0 °F 44.1 °F 80% 30.03 in 10.0 mi NW 4.6 mph - N/A   Clear
7:54 AM 54.0 °F 46.0 °F 75% 30.04 in 10.0 mi NNW 8.1 mph - N/A   Clear
8:54 AM 57.9 °F 46.0 °F 65% 30.04 in 10.0 mi NNW 10.4 mph - N/A   Clear
9:54 AM 61.0 °F 46.9 °F 60% 30.05 in 10.0 mi NNW 11.5 mph - N/A   Clear
10:54 AM 63.0 °F 46.9 °F 56% 30.04 in 10.0 mi NW 8.1 mph 17.3 mph N/A   Clear
11:54 AM 64.9 °F 45.0 °F 48% 30.04 in 10.0 mi NW 10.4 mph - N/A   Partly Cloudy
12:54 PM 66.0 °F 46.0 °F 48% 30.03 in 10.0 mi NW 9.2 mph 20.7 mph N/A   Scattered Clouds
1:54 PM 66.9 °F 46.0 °F 47% 30.02 in 10.0 mi WNW 12.7 mph - N/A   Mostly Cloudy
2:54 PM 68.0 °F 45.0 °F 43% 30.01 in 10.0 mi West 11.5 mph - N/A   Mostly Cloudy
3:54 PM 68.0 °F 45.0 °F 43% 29.99 in 10.0 mi NW 15.0 mph 19.6 mph N/A   Partly Cloudy
4:54 PM 69.1 °F 45.0 °F 42% 29.98 in 10.0 mi WNW 13.8 mph - N/A   Scattered Clouds
5:54 PM 68.0 °F 44.1 °F 42% 29.97 in 10.0 mi WNW 9.2 mph - N/A   Scattered Clouds
6:54 PM 66.9 °F 44.1 °F 44% 29.96 in 10.0 mi NW 6.9 mph - N/A   Clear
7:54 PM 63.0 °F 46.0 °F 54% 29.96 in 10.0 mi WNW 4.6 mph - N/A   Clear
8:54 PM 60.1 °F 45.0 °F 57% 29.97 in 10.0 mi WNW 4.6 mph - N/A   Clear
9:54 PM 57.9 °F 45.0 °F 62% 29.98 in 10.0 mi West 3.5 mph - N/A   Clear
10:54 PM 57.0 °F 45.0 °F 64% 29.98 in 10.0 mi West 3.5 mph - N/A   Clear
11:54 PM 55.9 °F 45.0 °F 67% 29.98 in 10.0 mi West 4.6 mph - N/A   Clear